Погода в Козельске

Россия / Калужская область     54°02′05″N   35°46′56″E
темп.,
°C
ветер,
м/с
пор.,
м/с
влажн.,
%
обл.,
%
осадки,
мм/ч
давл.,
гПа
погр.,
м
15 апреля, чт
чт1500:00+11юв1169100 0.0 101510
03:00+10всв3671100 0.0 1014108
06:00+10вюв2268100 0.0 101437
09:00+12св3768100 0.3 1014345
12:00+16юв51257100 0.1 10131795
15:00+16юв4861100 0.8 10131458
18:00+12юв2480100 2.1 1013115
21:00+10юв3793100 3.6 1014313
16 апреля, пт
пт1600:00+9всв4894100 0.3 1015238
03:00+9всв359660 1.9 1014110
06:00+7в399577 0.0 1016192
09:00+11вюв477875 0.0 1016507
12:00+14вюв4864100 0.4 10171265
15:00+14вюв4870100 3.2 10161087
18:00+12в4980100 3.4 1016317
21:00+9вюв248457 3.5 101859
17 апреля, сб
сб1700:00+8в1185100 0.0 101911
03:00+7всв239240 0.0 101946
06:00+7всв3798100 0.1 1020212
09:00+9св4893100 0.1 1020494
12:00+10св51188100 1.4 1019933
15:00+12вюв4979100 1.9 10191059
18:00+9ссз0391100 2.0 1019134
21:00+11всв51381100 2.8 1019742
18 апреля, вс
вс1800:00+8св51284100 0.1 1019470
03:00+7св51282100 0.1 1020468
06:00+5св5127938 0.0 1020460
09:00+8всв61173100 0.0 1021871
12:00+8всв5976100 0.0 1022718
15:00+10всв686699 0.0 10221250
18:00+8всв5117688 0.0 1023750
21:00+5всв22895 0.0 102420
19 апреля, пн
пн1900:00+4св22905 0.0 102520
03:00+4св34925 0.0 102575
06:00+3св410895 0.0 1026234
09:00+7всв58715 0.0 1026574
12:00+11всв685745 0.0 10251658
15:00+12всв775355 0.1 10251668
18:00+10всв586595 0.1 10261188
21:00+7всв4117199 0.1 1027399